PAKSAT-1R

Last updated on Thu Aug 13 2026 00:02:59 GMT+0000 (Coordinated Universal Time)

1 37779U 11042A 26224.57963483 .00000136 00000+0 00000+0 0 9990 2 37779 0.8303 83.9858 0002516 5.6812 117.9661 1.00273401 55049
UTC large
Height (km)
Speed (km/s)
/
Latitude / Longitude
Inclination (degrees)
Orbital Period (minutes)
Azimuth
Elevation
Range (km)
Doppler Factor

Next 0 passes for location: London (51.5072 / 0.1276)

No passes found over London.
PAKSAT-1R